DW0868 Marion MA US current weather conditions

sailwx.info

Wind from 178 at 13 knots

Air temperature 11.1° C
Dewpoint 9.7° C

Last reported at 2019-Dec-09 23:00 UTC.
Time now 2019-Dec-10 00:16 UTC

Location: N 41°41' W 070°45'.
View on Google Maps.

See reports from other nearby stations

  
Tides and Currents Weather Stations Pressure Air Temp Water Temp Dewpoint Dewpoint Depression Visibility Wind Speed Wind Dir Waves Ship Positions
date/time (UTC)wind fromknots sea level pressurealtimeterstation pressurevisibilityair tempwater tempwave heightnotes
2019-Dec-09 23:00 178 13 11.1
2019-Dec-09 22:46 217 8 9.4
2019-Dec-09 22:30 198 7 9.4
2019-Dec-09 22:15 221 6 9.4
2019-Dec-09 22:01 224 6 9.4
2019-Dec-09 21:47 200 6 8.9
2019-Dec-09 21:31 207 6 9.4
2019-Dec-09 21:16 215 7 9.4
2019-Dec-09 21:01 198 7 8.9
2019-Dec-09 20:46 240 8 8.9
2019-Dec-09 20:31 192 5 8.9
2019-Dec-09 20:17 202 4 8.9
2019-Dec-09 20:00 209 2 8.9
2019-Dec-09 19:46 219 0 9.4
2019-Dec-09 19:31 209 0 8.3
2019-Dec-09 19:16 231 3 8.9
2019-Dec-09 19:01 200 7 9.4
2019-Dec-09 18:45 211 9 9.4
2019-Dec-09 18:30 199 8 10.0
2019-Dec-09 18:16 214 8 10.0
2019-Dec-09 18:00 257 7 9.4
2019-Dec-09 17:46 219 6 8.9
2019-Dec-09 17:31 195 2 9.4
2019-Dec-09 17:16 190 5 8.9
2019-Dec-09 17:01 218 2 8.9
2019-Dec-09 16:45 215 5 8.9
2019-Dec-09 16:30 212 6 9.4
2019-Dec-09 16:15 200 8 9.4
2019-Dec-09 16:00 222 6 8.3
2019-Dec-09 15:45 204 3 8.3
2019-Dec-09 15:30 205 1 8.3
2019-Dec-09 15:15 204 1 9.4
2019-Dec-09 15:00 177 1 9.4
2019-Dec-09 14:47 138 1 9.4
2019-Dec-09 14:31 159 1 8.9
2019-Dec-09 14:17 213 7.2
2019-Dec-09 14:02 221 1 7.8
2019-Dec-09 13:46 215 3 7.8
2019-Dec-09 13:31 217 4 7.8
2019-Dec-09 13:16 225 6 8.3
2019-Dec-09 13:01 199 5 7.8
2019-Dec-09 12:46 226 1 6.7
2019-Dec-09 12:31 224 6.7
2019-Dec-09 12:16 220 6.7
2019-Dec-09 12:01 221 6.7
2019-Dec-09 11:46 221 6.7
2019-Dec-09 11:31 221 6.7
2019-Dec-09 11:15 215 6.7
2019-Dec-09 11:01 221 6.7
2019-Dec-09 10:46 195 6.7
2019-Dec-09 10:30 213 7.2
2019-Dec-09 10:16 211 0 7.2
2019-Dec-09 10:01 215 1 7.8
2019-Dec-09 09:45 217 1 7.2
2019-Dec-09 09:31 212 2 7.8
2019-Dec-09 09:16 225 5 7.8
2019-Dec-09 09:01 239 6 7.8
2019-Dec-09 08:45 225 6 7.8
2019-Dec-09 08:30 229 7 7.2
2019-Dec-09 08:15 225 7 7.2
2019-Dec-09 08:00 231 6 7.2
2019-Dec-09 07:46 226 6 7.2
2019-Dec-09 07:30 219 6 6.7
2019-Dec-09 07:15 246 6 6.7
2019-Dec-09 07:00 209 6 6.7
2019-Dec-09 06:45 199 5 6.7
2019-Dec-09 06:30 211 6 6.1
2019-Dec-09 06:15 217 5 6.1
2019-Dec-09 06:00 211 6 6.1
2019-Dec-09 05:45 226 7 6.1
2019-Dec-09 05:30 221 9 6.1
2019-Dec-09 05:15 230 11 6.1
2019-Dec-09 05:01 215 14 6.7
2019-Dec-09 04:48 211 15 6.1
2019-Dec-09 04:31 225 15 6.1
2019-Dec-09 04:17 225 14 6.1
2019-Dec-09 04:01 225 13 6.1
2019-Dec-09 03:45 222 12 6.1
2019-Dec-09 03:31 228 10 6.1
2019-Dec-09 03:15 244 12 6.1
2019-Dec-09 03:01 224 9 5.6
2019-Dec-09 02:47 235 8 5.6
2019-Dec-09 02:30 222 8 5.6
2019-Dec-09 02:16 217 10 5.6
2019-Dec-09 02:01 210 10 5.6
2019-Dec-09 01:47 209 9 5.6
2019-Dec-09 01:30 205 9 5.0
2019-Dec-09 01:15 226 8 5.0
2019-Dec-09 01:00 196 6 5.0
2019-Dec-09 00:46 232 6 5.0
2019-Dec-09 00:30 205 6 4.4
2019-Dec-09 00:15 221 6 4.4
2019-Dec-09 00:01 220 9 4.4
2019-Dec-08 23:47 215 8 4.4
2019-Dec-08 23:30 217 8 3.9
2019-Dec-08 23:15 226 8 3.9
2019-Dec-08 23:00 227 7 3.9
2019-Dec-08 22:46 208 9 3.9
2019-Dec-08 22:30 212 9 3.3
2019-Dec-08 22:15 205 8 3.3
2019-Dec-08 22:00 213 9 3.3
2019-Dec-08 21:45 188 7 2.8
2019-Dec-08 21:30 221 9 2.8
2019-Dec-08 21:15 226 9 2.8
2019-Dec-08 21:00 219 8 2.8
2019-Dec-08 20:45 219 8 2.2
2019-Dec-08 20:30 247 7 2.2
2019-Dec-08 20:15 229 9 2.2
2019-Dec-08 20:00 236 6 2.2
2019-Dec-08 19:45 218 6 2.2
2019-Dec-08 19:32 219 7 2.2
2019-Dec-08 19:30 235 8 2.2
2019-Dec-08 19:17 216 5 2.2
2019-Dec-08 19:03 229 6 2.2
2019-Dec-08 18:46 219 9 2.2
2019-Dec-08 18:32 231 6 2.2
2019-Dec-08 18:17 232 6 2.2
2019-Dec-08 18:01 245 5 1.7
2019-Dec-08 17:46 228 4 1.7
2019-Dec-08 17:31 195 4 1.1
2019-Dec-08 17:16 236 3 1.1
2019-Dec-08 17:01 240 4 0.6
2019-Dec-08 16:46 207 3 0.6
2019-Dec-08 16:31 227 2 -0.0
2019-Dec-08 16:16 208 1 -0.0
2019-Dec-08 16:01 208 2 -0.0
2019-Dec-08 15:46 242 1 -0.6
2019-Dec-08 15:30 217 1 -0.6
2019-Dec-08 15:16 220 2 -0.6
2019-Dec-08 15:01 255 -0.6
2019-Dec-08 14:46 258 -1.1
2019-Dec-08 14:31 258 -1.1
2019-Dec-08 14:15 268 -1.7
2019-Dec-08 14:01 277 -2.8
2019-Dec-08 13:45 325 -3.3
2019-Dec-08 13:30 325 -3.3
2019-Dec-08 13:15 325 -3.9
2019-Dec-08 13:00 309 -5.0
2019-Dec-08 12:45 310 -6.1
2019-Dec-08 12:30 304 -6.1
2019-Dec-08 12:15 297
2019-Dec-08 12:00 328
2019-Dec-08 11:45 328
2019-Dec-08 11:31 017
2019-Dec-08 11:16 017
2019-Dec-08 11:01 017
2019-Dec-08 10:46 017
2019-Dec-08 10:31 348
2019-Dec-08 10:16 319
2019-Dec-08 10:01 319 -7.2
2019-Dec-08 09:47 308 -7.2
2019-Dec-08 09:30 304 -7.2
2019-Dec-08 09:17 311 -7.2
2019-Dec-08 09:00 319 -6.7
2019-Dec-08 08:46 319 -6.7
2019-Dec-08 08:30 320 -6.7
2019-Dec-08 08:16 300 -6.7
2019-Dec-08 08:00 323 -6.1
2019-Dec-08 07:46 290 -6.7
2019-Dec-08 07:30 290 -6.1
2019-Dec-08 07:15 298 -6.1
2019-Dec-08 07:01 298 -6.1
2019-Dec-08 06:46 298 -6.1
2019-Dec-08 06:30 287 -6.1
2019-Dec-08 06:15 313 -5.6
2019-Dec-08 06:00 307 -5.6
2019-Dec-08 05:45 293 -5.6
2019-Dec-08 05:30 315 -5.6
2019-Dec-08 05:15 314 -5.6
2019-Dec-08 05:02 314 -5.0
2019-Dec-08 04:46 314 -5.0
2019-Dec-08 04:32 314 -5.0
2019-Dec-08 04:17 314 -5.0
2019-Dec-08 04:01 314 -5.0
2019-Dec-08 03:46 317 -4.4
2019-Dec-08 03:31 321 -4.4
2019-Dec-08 03:16 319 -4.4
2019-Dec-08 03:01 327 -3.9
2019-Dec-08 02:47 292 -3.9
2019-Dec-08 02:31 009 -3.9
2019-Dec-08 02:16 022 -3.9
2019-Dec-08 02:02 023 -3.9
2019-Dec-08 01:46 331 -3.3
2019-Dec-08 01:31 307 -3.3
2019-Dec-08 01:16 306 -3.3
2019-Dec-08 01:01 286 -3.3
2019-Dec-08 00:46 316 -2.8
2019-Dec-08 00:31 331
2019-Dec-08 00:15 311
2019-Dec-08 00:00 342